STARLINK-32742 (62605 NORAD) Tracking and Keplerian Element Data

This shows tracking and keplerian element data for the satellite.

Feedback or suggestion? Click here.




ElementValue
Catalog62605
NameSTARLINK-32742
Epoch Orbit5344
Epoch Day354.08804782
Epoch Year2025
RAAN7.178
Inclination43.0019
Eccentricity0.0001173
Argument of Perigee229.9118
Mean Anonmoly130.1631
Mean Motion15.2757788
Decay Rate0.0002096
L11 62605U 25008U 25354.08804782 .00020960 00000+0 76908-3 0 9999
L22 62605 43.0019 7.1780 0001173 229.9118 130.1631 15.27577880 53446



Live tracking and technical data element details for STARLINK-32742 (NORAD 62605). STARLINK-32742 can be tracked NOW for your location showing map with azimuth and elevation plus other details from your city location.







IsCatalogInMostPopularTable: catalog: 62605, numindb: 237
Update: records affected: 1



GetName: 62605 STARLINK-32742

Hit Count: updated at: Fri, 16 Jan 2026 08:14:16 GMT